EW6709 Weather Reports


Display with metric or nautical units.
time (UTC)temp
F
wind
direction
speed
MPH
gust
MPH
rain 1hr
in
rain 24hr
in
rain mn
in
humidity
%
barometer
mb
20260503050058 44 339 0.0 0.0 0.00 0.14 0.00 86 1015.7
20260503044557 44 339 0.0 0.0 0.00 0.14 0.00 86 1015.9
20260503043056 45 339 0.0 0.0 0.00 0.14 0.00 86 1015.8
20260503041652 45 339 0.0 0.0 0.00 0.14 0.00 86 1015.7
20260503040051 46 339 0.0 0.0 0.00 0.14 0.00 86 1015.6
20260503034549 46 339 0.0 0.0 0.00 0.14 0.14 86 1015.4
20260503033048 46 339 0.0 0.0 0.00 0.14 0.14 86 1015.5
20260503031545 46 339 0.0 0.0 0.00 0.14 0.14 86 1015.3
20260503030043 47 339 0.0 0.0 0.00 0.14 0.14 86 1015.0
20260503024540 47 339 0.0 0.0 0.00 0.14 0.14 86 1015.1
20260503023039 48 339 0.0 0.0 0.00 0.14 0.14 86 1014.9
20260503021538 48 339 0.0 0.0 0.00 0.14 0.14 86 1014.7
20260503020034 49 339 0.0 0.0 0.00 0.14 0.14 86 1014.6
20260503014549 49 339 0.0 0.0 0.00 0.14 0.14 86 1014.8
20260503013035 49 339 0.0 0.0 0.00 0.14 0.14 85 1014.7
20260503011532 50 339 0.0 0.0 0.00 0.14 0.14 85 1014.4
20260503010030 51 339 0.0 0.0 0.00 0.14 0.14 85 1014.2
20260503004528 51 339 0.0 0.0 0.00 0.14 0.14 85 1013.9
20260503003024 52 339 0.0 0.0 0.00 0.14 0.14 85 1013.6
20260503001525 53 339 0.0 0.0 0.00 0.14 0.14 84 1013.4
20260503000023 54 219 0.0 0.0 0.00 0.14 0.14 84 1013.2
20260502234525 54 219 0.0 0.0 0.00 0.14 0.14 84 1013.0
20260502233022 54 219 0.0 0.0 0.01 0.14 0.14 84 1012.7
20260502231524 54 213 0.0 0.0 0.01 0.14 0.14 83 1012.8
20260502230021 55 211 0.0 0.0 0.01 0.14 0.14 83 1012.7
20260502224523 55 211 0.0 0.0 0.01 0.14 0.14 83 1012.6
20260502223020 55 215 0.0 0.0 0.00 0.13 0.13 82 1012.7
20260502221519 55 215 0.0 0.0 0.00 0.13 0.13 82 1012.6
20260502220019 55 215 0.0 0.0 0.00 0.13 0.13 82 1012.5
20260502214519 55 215 0.0 0.0 0.00 0.13 0.13 81 1012.3
20260502213018 56 286 0.0 0.0 0.00 0.13 0.13 82 1012.3
20260502211533 56 273 0.0 0.0 0.00 0.13 0.13 81 1012.4
20260502210017 56 44 0.0 0.0 0.00 0.13 0.13 80 1012.3
20260502204516 56 44 0.0 0.0 0.00 0.14 0.13 79 1012.3
20260502203015 56 74 0.0 3.0 0.00 0.14 0.13 78 1012.4
20260502201513 55 42 0.0 1.0 0.00 0.14 0.13 79 1012.4
20260502200017 56 33 0.0 6.0 0.00 0.14 0.13 80 1012.4
20260502194512 56 22 1.0 5.0 0.00 0.14 0.13 80 1012.5
20260502193011 55 40 0.0 3.0 0.00 0.14 0.13 81 1012.8
20260502191509 55 10 0.0 3.0 0.00 0.14 0.13 82 1013.0
20260502190008 55 5 0.0 6.0 0.00 0.14 0.13 82 1012.9
20260502184507 55 124 0.0 3.0 0.00 0.14 0.13 83 1013.0
20260502183005 54 91 0.0 4.0 0.00 0.14 0.13 83 1013.1
20260502181502 54 360 2.0 8.0 0.00 0.14 0.13 85 1013.2
20260502163055 52 72 0.0 2.0 0.00 0.13 0.12 85 1014.1
20260502161550 53 44 0.0 2.0 0.01 0.13 0.12 85 1014.3
20260502151554 52 120 0.0 2.0 0.03 0.12 0.11 85 1014.4
20260502123021 52 294 0.0 0.0 0.01 0.05 0.02 86 1013.6
20260502121520 52 294 0.0 0.0 0.01 0.05 0.02 86 1013.2
20260502114516 52 294 0.0 0.0 0.02 0.05 0.02 86 1013.4
20260502113015 52 227 0.0 0.0 0.01 0.04 0.01 86 1013.3
20260502111514 52 227 0.0 0.0 0.01 0.04 0.01 86 1013.3
20260502110013 52 227 0.0 0.0 0.00 0.03 0.00 86 1013.6
20260502104520 52 227 0.0 0.0 0.00 0.03 0.00 86 1013.6
20260502103015 52 227 0.0 0.0 0.00 0.03 0.00 86 1013.6
20260502101529 52 228 0.0 0.0 0.00 0.03 0.00 86 1013.6
20260502091505 52 283 0.0 0.0 0.00 0.03 0.00 86 1013.7
20260502080106 51 283 0.0 0.0 0.00 0.03 0.00 86 1012.8
20260502070059 52 283 0.0 0.0 0.00 0.03 0.00 86 1012.5
20260502064551 52 283 0.0 0.0 0.00 0.03 0.00 86 1012.5
20260502063055 52 283 0.0 0.0 0.00 0.03 0.00 86 1012.7
20260502061545 52 283 0.0 0.0 0.00 0.03 0.00 86 1012.9
20260502060043 52 283 0.0 0.0 0.00 0.03 0.00 86 1013.0
20260502054543 52 283 0.0 0.0 0.00 0.03 0.00 86 1013.0
20260502053039 52 283 0.0 0.0 0.00 0.03 0.00 86 1013.2
20260502051550 52 283 0.0 0.0 0.00 0.03 0.00 86 1013.3